sat.trackr.live / text

‹ back to catalog

STARLINK-4778

NORAD 53836 · 2022-114U

PAYLOAD ACTIVE UNKNOWN

§ Identity

Operator
Country
US
Launch date
2022-09-19
Launch site
AFETR
Launch vehicle
Mass (kg)
RCS (m²)

Purposes: comms

External: N2YO · Heavens-Above · Gunter

§ Orbital elements

Epoch: 2026-05-25T04:00:03.998880Z

Period
94.26 min
Inclination
53.2183°
Eccentricity
0.0001133
Mean motion
15.27670002 rev/d
Perigee alt
482.0 km
Apogee alt
483.6 km
Semi-major
6,860.9 km
B*
2.1637e-3
RAAN
309.1883°
Arg perigee
110.7473°
Mean anomaly
126.8019°
Rev number
584

§ Raw data

STARLINK-47781 53836U 22114U   26145.16671295  .00059420  00000+0  21637-2 0  99902 53836  53.2183 309.1883 0001133 110.7473 126.8019 15.27670002  5846

JSON: /api/v1/satellites/53836 · /tle

For live sub-satellite position, see the globe view (requires WebGL).

§ Visibility from observer

Set your observer location to see the next 7 days of passes ≥ 10°. The values pass through the URL so the page stays shareable.

No JS? Fill the form by hand. The geolocation button needs JavaScript.